Location: Drignac
(45.1667°N, 2.0333°E)
Time: 13:25:30
(UTC+00:00)

USA 186 - Pass Details

Date: 29 March 2020
Orbit: 263 x 446 km, 96.9° (Epoch: 25 May)

Event Time Altitude Azimuth Distance (km) Brightness Sun altitude
Exits shadow 18:51:18 - 147° (SSE) 2,384 5.1 -6.9°
Reaches altitude 10° 18:53:14 10° 139° (SE) 1,598 4.2 -7.2°
Maximum altitude 18:56:25 35° 72° (ENE) 760 2.6 -7.8°
Drops below altitude 10° 18:59:33 10° 6° (N) 1,588 4.8 -8.3°
Sets 19:01:40 0° 357° (N) 2,446 5.9 -8.7°
